This is the latest recevied weather packets stored in our database for station/object KH6HHG. If no packets are shown the sender has not sent any weather packets the latest 10 day(s).
| Time | Temp. | Humidity | Pressure | Rain* | Wind** | Luminosity | Snow |
|---|---|---|---|---|---|---|---|
| 1777317846 | 26.11° C | 64% | 1013.1 hPa | 0 mm | - | - | - |
| 1777317546 | 26.11° C | 67% | 1013.1 hPa | 0 mm | - | - | - |
| 1777317246 | 25.56° C | 69% | 1013 hPa | 0 mm | - | - | - |
| 1777316946 | 25° C | 66% | 1013.2 hPa | 0 mm | - | - | - |
| 1777316646 | 25° C | 66% | 1013 hPa | 0 mm | - | - | - |
| 1777316346 | 25° C | 66% | 1013 hPa | 0 mm | - | - | - |
| 1777316046 | 25° C | 68% | 1013 hPa | 0 mm | - | - | - |
| 1777315746 | 25° C | 71% | 1012.9 hPa | 0 mm | - | - | - |
| 1777315446 | 24.44° C | 71% | 1012.9 hPa | 0 mm | - | - | - |
| 1777315146 | 24.44° C | 72% | 1012.9 hPa | 0 mm | - | - | - |
| 1777314846 | 23.89° C | 74% | 1013 hPa | 0 mm | - | - | - |
| 1777314546 | 23.89° C | 73% | 1013.1 hPa | 0 mm | - | - | - |
| 1777314246 | 23.33° C | 72% | 1013.1 hPa | 0 mm | - | - | - |
| 1777313946 | 22.78° C | 70% | 1013 hPa | 0 mm | - | - | - |
| 1777313646 | 22.78° C | 70% | 1013 hPa | 0 mm | - | - | - |
| 1777313346 | 22.78° C | 70% | 1013 hPa | 0 mm | - | - | - |
| 1777313047 | 22.78° C | 72% | 1012.8 hPa | 0 mm | - | - | - |
| 1777312747 | 22.22° C | 77% | 1012.7 hPa | 0 mm | - | - | - |
| 1777312447 | 21.67° C | 78% | 1012.7 hPa | 0 mm | - | - | - |
| 1777312147 | 21.11° C | 78% | 1012.7 hPa | 0 mm | - | - | - |
| 1777311847 | 21.11° C | 80% | 1012.7 hPa | 0 mm | - | - | - |
| 1777311547 | 20.56° C | 81% | 1012.7 hPa | 0 mm | - | - | - |
| 1777311247 | 20° C | 80% | 1012.8 hPa | 0 mm | - | - | - |
| 1777310947 | 19.44° C | 82% | 1012.7 hPa | 0 mm | - | - | - |
| 1777310647 | 18.89° C | 83% | 1012.7 hPa | 0 mm | - | - | - |
* Rain latest hour (hover to see other rain measurements)
** Current wind speed in m/s (hover to see current wind gust speed)